Powrót do katalogu

FENGYUN 1C DEB

AktywnyLEO
NORAD 32320·DEBRIS·🇨🇳 China

Wystrzelony May 10, 1999 z Taiyuan Satellite Launch Center

Loading…

Następne Przeloty (najbliższe 24 godziny)

TLE

ŚwieżeSource: Space-Track

Epoka: Sep 13, 2026, 05:48 UTC

1 32320U 99025CXM 26256.24203551  .00001714  00000-0  58294-3 0  9992
2 32320 100.3510 173.8073 0055856 359.3779   0.7323 14.37403136661159

Śledź FENGYUN 1C DEB w czasie rzeczywistym z AllMySat

Download on the App Store